SCP
0 0 0 0 0 0 0 0 0 0 0 0 0 0 0 0 0 0 0 0 0 0 0 0 0 0 0 0 0 0 0 0 0 0 0 0 0 0 0 0 0 0 0 0 0
0 0 0 0 0 0 0 0 0 0 0 0 0 0 0 0 0 0 0 0 0 0 0 0 0 0 0 0 0 0 0 0 0 0 0 0 0 0 0 -0 0 0 0 0 0
0 0 0 0 0 0 0 0 0 0 0 0 0 0 0 0 0 0 0 0 0 0 0 0 0 0 0 0 0 0 0 0 0 0 0 0 0 0 0 0 0 0 0 0 0
0 0 0 0 0 0 0 0 0 0 0 0 0 0 0 0 0 0 0 0 0 0 0 0 0 0 0 0 0 0 0 0 0 0 0 0 0 0 0 0 0 0 0 0 0
0 0 0 0 0 0 0 0 0 0 0 0 0 0 0 0 0 0 0 0 0 0 0 0 0 0 0 0 0 0 0 0 0 0 0 0 0 0 0 0 0 0 0 0 0
0 0 0 0 0 0 0 0 0 0 0 0 0 0 0 0 0 0 0 0 0 0 0 0 0 0 0 0 0 0 0 0 0 0 0 0 0 0 0 0 0 0 0 0 0
0 0 0 0 0 0 0 0 0 0 0 0 0 0 0 0 0 0 0 0 0 0 0 0 0 0 0 0 0 0 0 0 0 0 0 0 0 0 0 0 0 0 0 0 0
0 0 0 0 0 0 0 0 0 0 0 0 0 0 0 0 0 0 0 0 0 0 0 0 0 0 0 0 0 0 0 0 0 0 0 0 0 0 0 0 0 0 0 0 0
0 0 0 0 0 0 0 0 0 0 0 0 0 0 0 0 0 0 0 0 0 0 0 0 0 0 0 0 0 0 0 0 0 0 0 0 0 0 0 0 0 0 0 0 0
0 0 0 0 0 0 0 0 0 0 0 0 0 0 0 0 0 0 0 0 0 0 0 0 0 0 0 0 0 0 0 0 0 0 0 0 0 0 0 0 0 0 0 0 0
0 0 0 0 0 0 0 0 0 0 0 0 0 0 0 0 0 0 0 0 0 0 0 0 0 0 0 0 0 0 0 0 0 0 0 0 0 0 0 0 0 0 0 0 0
0 0 0 0 0 0 0 0 0 0 0 0 0 0 0 0 0 0 0 0 0 0 0 0 0 0 0 0 0 0 0 0 0 0 0 0 0 0 0 0 0 0 0 0 0
0 0 0 0 0 0 0 0 0 0 0 0 0 0 0 0 0 0 0 0 0 0 0 0 0 0 0 0 0 0 0 0 0 0 0 0 0 0 0 0 0 0 0 0 0
0 0 0 0 0 0 0 0 0 0 0 0 0 0 0 0 0 0 0 0 0 0 0 0 0 0 0 0 0 0 0 0 0 0 0 0 0 0 0 0 0 0 0 0 0
0 0 0 0 0 0 0 0 0 0 0 0 0 0 0 0 0 0 0 0 0 0 0 0 0 0 0 0 0 0 0 0 0 0 0 0 0 0 0 0 0 0 0 0 0
0 0 0 0 0 0 0 0 0 0 0 0 0 0 0 0 0 0 0 0 0 0 0 0 0 0 0 0 0 0 0 0 0 0 0 0 0 0 0 0 0 0 0 0 0
0 0 0 0 0 0 0 0 0 0 0 0 0 0 0 0 0 0 0 0 0 0 0 0 0 0 0 0 0 0 0 0 0 0 0 0 0 0 0 0 0 0 0 0 0
0 0 0 0 0 0 0 0 0 0 0 0 0 0 0 0 0 0 0 0 0 0 0 0 0 0 0 0 0 0 0 0 0 0 0 0 0 0 0 0 0 0 0 0 0
0 0 0 0 0 0 0 0 0 0 0 0 0 0 0 0 0 0 0 0 0 0 0 0 0 0 0 0 0 0 0 0 0 0 0 0 0 0 0 0 0 0 0 0 0
0 0 0 0 0 0 0 0 0 0 0 0 0 0 0 0 0 0 0 0 0 0 0 0 0 0 0 0 0 0 0 0 0 0 0 0 0 0 0 0 0 0 0 0 0
0 0 0 0 0 0 0 0 0 0 0 0 0 0 0 0 0 0 0 0 0 0 0 0 0 0 0 0 0 0 0 0 0 0 0 0 0 0 0 0 0 0 0 0 0
0 0 0 0 0 0 0 0 0 0 0 0 0 0 0 0 0 0 0 0 0 0 0 0 0 0 0 0 0 0 0 0 0 0 0 0 0 0 0 0 0 0 0 0 0
0 0 0 0 0 0 0 0 0 0 0 0 0 0 0 0 0 0 0 0 0 0 0 0 0 0 0 0 0 0 0 0 0 0 0 0 0 0 0 0 0 0 0 0 0
0 0 0 0 0 0 0 0 0 0 0 0 0 0 0 0 0 0 0 0 0 0 0 0 0 0 0 0 0 0 0 0 0 0 0 0 0 0 0 0 0 0 0 0 0
0 0 0 0 0 0 0 0 0 0 0 0 0 0 0 0 0 0 0 0 0 0 0 0 0 0 0 0 0 0 0 0 0 0 0 0 0 0 0 0 0 0 0 0 0
0 0 0 0 0 0 0 0 0 0 0 0 0 0 0 0 0 0 0 0 0 0 0 0 0 0 0 0 0 0 0 0 0 0 0 0 0 0 0 0 0 0 0 0 0
0 0 0 0 0 0 0 0 0 0 0 0 0 0 0 0 0 0 0 0 0 0 0 0 0 0 0 0 0 0 0 0 0 0 0 0 0 0 0 0 0 0 0 0 0
Wind_Speed_500mb
14 13 12 11 11 10 11 12 13 14 15 16 17 18 21 22 25 28 30 14 12 13 9 8 8 4 2 1 3 3 8 2 8 7 7 10 12 10 20 7 11 9 15 21 30
18 17 17 17 16 16 15 15 16 16 17 18 19 21 23 25 28 30 11 6 7 7 8 10 8 4 2 2 2 7 7 15 8 3 5 11 9 21 13 25 18 28 21 17 21
22 21 20 21 20 20 20 20 19 19 20 20 21 22 24 25 29 5 3 6 8 12 16 13 9 1 1 3 6 7 9 9 9 18 10 6 9 6 8 11 34 30 39 32 27
24 25 25 24 24 24 23 23 24 23 23 22 22 21 21 20 8 6 6 5 7 11 14 14 10 5 5 6 10 4 18 15 7 9 6 7 7 9 19 41 39 34 23 16 17
29 28 28 28 27 27 27 27 27 26 25 23 23 21 21 16 21 22 21 18 17 17 20 16 16 11 7 7 3 7 9 15 29 27 25 25 22 17 44 43 15 8 12 16 17
33 33 32 32 32 31 29 29 29 28 27 25 24 22 20 18 21 21 22 21 21 21 23 23 11 16 6 6 7 3 11 23 28 41 23 13 5 8 9 8 12 13 15 14 15
35 35 35 35 34 34 32 29 30 30 30 29 27 24 26 41 26 22 24 21 18 19 22 23 23 14 9 3 4 7 12 16 20 10 8 11 3 14 19 15 11 14 13 10 12
39 35 36 36 36 36 35 32 32 31 30 29 27 24 22 30 31 35 35 30 25 23 20 19 18 16 8 2 6 4 4 7 5 7 3 8 12 11 9 22 14 12 11 16 20
38 37 35 35 36 36 37 32 32 31 30 28 25 20 21 27 29 33 28 23 21 21 20 16 15 9 8 10 7 7 7 10 16 1 5 5 10 24 22 19 19 21 23 27 30
38 36 34 35 33 35 34 32 29 30 32 28 27 12 32 18 17 22 25 22 15 21 16 14 10 6 5 7 11 12 9 9 11 1 8 4 12 20 37 9 29 34 37 40 42
39 37 35 35 32 32 31 26 22 15 33 25 13 16 11 22 18 20 24 28 17 15 11 10 8 17 26 24 5 6 10 12 7 8 5 9 10 13 32 42 38 39 43 48 53
46 40 37 34 33 33 30 17 15 10 21 33 49 47 39 17 12 24 30 26 18 13 13 6 16 20 7 10 10 8 6 12 9 10 8 7 6 13 30 20 32 37 39 45 49
56 48 41 37 39 39 37 34 23 14 13 20 46 43 56 53 31 31 40 21 10 13 16 17 12 10 14 10 12 10 13 9 13 5 3 1 3 6 11 33 38 39 42 45 48
64 57 48 45 44 46 46 27 28 13 7 12 13 13 24 25 13 35 49 21 8 19 12 14 14 11 10 13 18 9 15 14 8 7 8 3 7 7 9 12 19 31 40 46 48
56 66 64 66 49 37 31 26 20 13 11 1 8 13 23 21 20 9 38 15 13 14 13 15 11 10 13 13 12 12 10 13 8 8 3 5 3 2 14 6 8 18 32 37 41
63 56 65 72 69 50 33 27 34 8 25 8 9 9 11 8 8 12 11 9 8 9 5 11 3 10 11 4 11 10 11 11 9 7 3 15 13 8 11 12 14 21 31 36 38
68 67 65 82 83 63 50 49 7 13 2 12 10 11 7 11 7 9 11 11 11 10 12 3 9 5 8 9 6 5 10 1 4 0 11 5 7 8 6 11 32 36 40 36 34
74 71 71 73 81 82 59 10 15 11 19 9 9 8 13 13 9 12 13 11 12 3 6 13 8 21 13 13 14 13 12 10 13 8 6 1 11 5 2 29 54 55 48 38 32
63 75 81 73 82 69 51 18 16 10 12 20 8 8 10 10 12 9 14 10 16 22 14 12 10 1 5 7 14 10 9 7 11 5 6 8 1 3 10 14 34 46 47 40 31
54 66 66 70 81 77 23 27 13 9 8 5 30 13 18 15 15 17 19 7 8 21 10 8 3 1 3 6 7 8 13 6 4 4 8 7 8 9 21 28 24 28 48 43 31
32 10 11 53 79 37 14 7 9 16 10 11 12 10 9 12 13 12 14 3 3 1 21 9 6 3 7 10 13 5 5 6 7 9 10 3 11 4 32 40 36 44 56 47 38
30 3 14 39 5 5 8 13 11 11 13 2 5 6 9 9 9 11 13 5 5 2 13 4 8 5 14 2 3 3 12 11 9 10 5 5 14 12 24 44 51 48 52 40 31
21 23 32 59 9 10 6 10 17 11 8 8 4 6 11 7 3 10 11 7 6 6 6 5 6 5 8 4 0 9 7 7 8 7 14 10 10 8 19 26 42 49 45 39 34
20 6 13 30 14 18 12 9 13 19 10 13 8 7 6 8 9 11 8 3 4 5 18 10 4 10 16 5 7 5 6 8 9 7 7 14 5 6 12 21 31 37 41 40 37
5 5 4 6 13 8 24 21 23 13 23 34 10 26 25 13 18 13 10 4 4 6 8 10 8 6 6 5 5 3 10 18 15 17 17 13 15 21 24 24 42 42 41 44 43
6 2 2 5 7 23 11 20 33 31 17 15 29 27 29 22 25 20 17 11 11 4 8 6 6 7 5 7 4 9 26 13 18 10 11 7 26 14 28 31 28 44 51 50 43
32 19 8 3 3 1 6 9 16 15 10 13 16 9 24 26 4 3 19 20 16 18 16 13 12 8 7 5 5 16 22 34 25 10 19 20 21 14 8 20 37 47 56 49 33
Wind_Direction_500mb
277 274 270 269 269 273 279 288 296 302 307 311 312 313 313 314 312 310 309 284 249 251 252 216 201 230 269 86 76 96 60 235 245 186 268 335 16 330 329 262 311 282 283 298 306
269 272 275 276 277 277 276 280 286 293 299 305 308 309 310 312 311 306 295 261 226 201 172 167 174 153 97 100 148 101 121 221 223 213 251 312 318 323 325 317 305 313 325 319 307
267 269 268 273 275 277 280 283 285 289 295 299 302 305 310 316 318 251 172 139 143 153 154 161 168 227 222 200 202 158 196 211 249 240 254 257 282 290 299 304 308 320 318 318 317
265 267 269 272 275 278 279 281 284 288 292 296 298 300 304 309 300 205 196 212 216 202 191 191 210 177 190 212 206 184 245 231 258 243 257 248 272 269 258 280 314 317 328 8 24
265 266 269 270 271 274 277 280 282 285 287 290 292 294 297 279 260 263 257 255 245 236 223 219 211 196 190 215 194 211 269 270 272 273 272 272 251 258 278 298 330 23 50 15 356
264 267 268 269 271 271 272 277 280 283 285 287 288 287 279 259 265 258 252 250 247 240 228 224 236 216 214 228 180 277 276 280 285 276 266 230 256 187 299 121 53 354 21 18 2
260 264 267 267 269 271 272 271 275 279 283 286 286 283 266 260 266 256 249 242 238 235 229 229 214 195 174 270 283 311 324 325 272 285 213 176 82 230 260 320 19 40 44 43 43
265 261 263 267 267 269 271 273 273 276 278 281 283 282 260 264 254 249 245 245 242 234 228 223 216 224 211 194 16 0 32 337 272 146 156 142 259 276 322 337 85 106 94 81 74
264 265 264 263 265 267 269 270 272 274 274 274 277 263 265 258 249 242 237 237 226 216 212 206 195 197 150 107 7 1 238 213 311 60 119 112 276 284 356 348 119 109 95 86 80
264 265 267 266 264 264 265 270 274 273 268 268 251 269 241 241 235 229 217 207 194 188 173 183 177 105 62 114 224 202 216 242 236 37 60 336 268 289 349 253 128 104 95 87 76
261 265 266 267 267 265 268 275 276 261 233 217 206 210 276 225 220 211 201 182 173 173 165 177 131 209 198 202 193 168 186 214 247 252 147 232 247 19 15 87 98 99 98 93 84
258 259 262 264 261 260 260 245 245 285 295 252 245 245 243 234 226 208 192 179 177 188 123 73 225 225 183 185 200 236 231 251 281 269 165 253 311 58 39 58 89 97 95 96 95
256 253 254 255 254 253 253 247 251 281 265 264 239 238 236 232 232 212 195 199 175 160 195 187 212 176 176 182 187 207 203 190 224 339 320 305 289 133 65 73 90 101 109 102 94
250 249 247 243 248 248 246 247 241 264 285 252 223 219 199 195 227 217 203 197 189 198 179 238 235 182 184 216 177 211 203 191 185 129 231 109 261 176 119 90 85 107 113 111 106
250 246 244 236 236 225 242 231 205 180 273 190 161 163 156 177 146 180 192 193 172 181 141 231 184 179 203 212 173 220 145 168 157 135 61 256 121 232 134 144 140 128 121 111 105
247 244 244 234 224 225 218 194 163 149 233 211 137 158 126 176 156 123 161 167 172 152 230 230 192 182 209 89 173 130 91 56 57 89 260 230 174 209 188 179 156 157 140 128 117
251 243 239 243 222 213 196 165 187 208 207 198 185 169 164 166 172 158 163 173 173 139 219 195 216 206 167 99 73 94 112 118 8 64 227 135 138 238 288 184 165 161 154 143 130
242 243 241 242 227 212 188 183 207 207 209 111 115 107 181 157 201 174 146 190 237 148 124 174 244 172 187 182 174 185 176 165 204 196 232 156 230 246 119 134 150 158 156 155 149
240 238 239 231 227 211 170 209 205 178 198 146 119 164 216 203 157 141 195 211 200 183 194 175 269 225 161 148 137 183 203 167 104 42 64 229 347 193 117 127 151 163 167 169 168
218 219 217 222 221 204 206 208 215 223 142 173 195 171 184 193 160 176 182 196 216 186 193 213 183 172 135 115 58 164 165 101 359 168 250 268 256 221 186 180 183 179 185 179 180
193 160 195 214 204 195 207 237 182 207 193 205 178 150 187 186 182 176 192 114 110 258 175 168 126 233 127 198 184 157 185 61 128 151 177 241 253 216 190 183 186 191 191 186 186
188 146 217 169 191 152 155 184 193 176 173 148 105 103 178 168 178 188 183 160 149 143 160 351 88 190 224 133 275 283 206 163 161 215 228 169 252 324 183 179 185 191 191 192 195
186 202 192 185 198 223 175 167 184 162 191 137 139 164 178 188 169 224 202 68 87 65 131 105 176 128 338 318 14 209 205 122 93 63 199 168 261 34 126 166 183 187 193 194 193
163 177 183 208 225 194 195 194 175 188 158 153 155 148 159 200 177 179 171 104 95 126 99 71 171 184 195 150 108 160 220 186 145 162 168 232 177 195 190 174 179 192 192 191 190
138 168 227 185 218 228 187 184 203 184 205 197 205 200 193 188 207 203 182 125 41 140 145 133 223 183 190 125 68 193 223 197 194 201 196 231 214 191 199 198 190 194 190 185 181
215 212 333 326 309 207 204 206 196 194 167 196 218 201 209 204 196 188 144 178 195 107 139 150 189 158 239 348 181 241 244 213 222 209 256 230 259 170 203 205 200 200 193 187 185
208 199 149 243 254 229 230 197 205 133 193 186 186 169 207 221 151 94 145 172 167 160 161 168 150 134 223 36 82 281 233 211 218 202 203 214 233 158 184 199 200 194 192 187 189
Wind_Speed_850mb
14 13 12 11 11 10 11 12 13 14 15 16 17 18 21 22 25 28 30 14 12 13 9 8 8 4 2 1 3 3 8 2 8 7 7 10 12 10 20 7 11 9 15 21 30
18 17 17 17 16 16 15 15 16 16 17 18 19 21 23 25 28 30 11 6 7 7 8 10 8 4 2 2 2 7 7 15 8 3 5 11 9 21 13 25 18 28 21 17 21
22 21 20 21 20 20 20 20 19 19 20 20 21 22 24 25 29 5 3 6 8 12 16 13 9 1 1 3 6 7 9 9 9 18 10 6 9 6 8 11 34 30 39 32 27
24 25 25 24 24 24 23 23 24 23 23 22 22 21 21 20 8 6 6 5 7 11 14 14 10 5 5 6 10 4 18 15 7 9 6 7 7 9 19 41 39 34 23 16 17
29 28 28 28 27 27 27 27 27 26 25 23 23 21 21 16 21 22 21 18 17 17 20 16 16 11 7 7 3 7 9 15 29 27 25 25 22 17 44 43 15 8 12 16 17
33 33 32 32 32 31 29 29 29 28 27 25 24 22 20 18 21 21 22 21 21 21 23 23 11 16 6 6 7 3 11 23 28 41 23 13 5 8 9 8 12 13 15 14 15
35 35 35 35 34 34 32 29 30 30 30 29 27 24 26 41 26 22 24 21 18 19 22 23 23 14 9 3 4 7 12 16 20 10 8 11 3 14 19 15 11 14 13 10 12
39 35 36 36 36 36 35 32 32 31 30 29 27 24 22 30 31 35 35 30 25 23 20 19 18 16 8 2 6 4 4 7 5 7 3 8 12 11 9 22 14 12 11 16 20
38 37 35 35 36 36 37 32 32 31 30 28 25 20 21 27 29 33 28 23 21 21 20 16 15 9 8 10 7 7 7 10 16 1 5 5 10 24 22 19 19 21 23 27 30
38 36 34 35 33 35 34 32 29 30 32 28 27 12 32 18 17 22 25 22 15 21 16 14 10 6 5 7 11 12 9 9 11 1 8 4 12 20 37 9 29 34 37 40 42
39 37 35 35 32 32 31 26 22 15 33 25 13 16 11 22 18 20 24 28 17 15 11 10 8 17 26 24 5 6 10 12 7 8 5 9 10 13 32 42 38 39 43 48 53
46 40 37 34 33 33 30 17 15 10 21 33 49 47 39 17 12 24 30 26 18 13 13 6 16 20 7 10 10 8 6 12 9 10 8 7 6 13 30 20 32 37 39 45 49
56 48 41 37 39 39 37 34 23 14 13 20 46 43 56 53 31 31 40 21 10 13 16 17 12 10 14 10 12 10 13 9 13 5 3 1 3 6 11 33 38 39 42 45 48
64 57 48 45 44 46 46 27 28 13 7 12 13 13 24 25 13 35 49 21 8 19 12 14 14 11 10 13 18 9 15 14 8 7 8 3 7 7 9 12 19 31 40 46 48
56 66 64 66 49 37 31 26 20 13 11 1 8 13 23 21 20 9 38 15 13 14 13 15 11 10 13 13 12 12 10 13 8 8 3 5 3 2 14 6 8 18 32 37 41
63 56 65 72 69 50 33 27 34 8 25 8 9 9 11 8 8 12 11 9 8 9 5 11 3 10 11 4 11 10 11 11 9 7 3 15 13 8 11 12 14 21 31 36 38
68 67 65 82 83 63 50 49 7 13 2 12 10 11 7 11 7 9 11 11 11 10 12 3 9 5 8 9 6 5 10 1 4 0 11 5 7 8 6 11 32 36 40 36 34
74 71 71 73 81 82 59 10 15 11 19 9 9 8 13 13 9 12 13 11 12 3 6 13 8 21 13 13 14 13 12 10 13 8 6 1 11 5 2 29 54 55 48 38 32
63 75 81 73 82 69 51 18 16 10 12 20 8 8 10 10 12 9 14 10 16 22 14 12 10 1 5 7 14 10 9 7 11 5 6 8 1 3 10 14 34 46 47 40 31
54 66 66 70 81 77 23 27 13 9 8 5 30 13 18 15 15 17 19 7 8 21 10 8 3 1 3 6 7 8 13 6 4 4 8 7 8 9 21 28 24 28 48 43 31
32 10 11 53 79 37 14 7 9 16 10 11 12 10 9 12 13 12 14 3 3 1 21 9 6 3 7 10 13 5 5 6 7 9 10 3 11 4 32 40 36 44 56 47 38
30 3 14 39 5 5 8 13 11 11 13 2 5 6 9 9 9 11 13 5 5 2 13 4 8 5 14 2 3 3 12 11 9 10 5 5 14 12 24 44 51 48 52 40 31
21 23 32 59 9 10 6 10 17 11 8 8 4 6 11 7 3 10 11 7 6 6 6 5 6 5 8 4 0 9 7 7 8 7 14 10 10 8 19 26 42 49 45 39 34
20 6 13 30 14 18 12 9 13 19 10 13 8 7 6 8 9 11 8 3 4 5 18 10 4 10 16 5 7 5 6 8 9 7 7 14 5 6 12 21 31 37 41 40 37
5 5 4 6 13 8 24 21 23 13 23 34 10 26 25 13 18 13 10 4 4 6 8 10 8 6 6 5 5 3 10 18 15 17 17 13 15 21 24 24 42 42 41 44 43
6 2 2 5 7 23 11 20 33 31 17 15 29 27 29 22 25 20 17 11 11 4 8 6 6 7 5 7 4 9 26 13 18 10 11 7 26 14 28 31 28 44 51 50 43
32 19 8 3 3 1 6 9 16 15 10 13 16 9 24 26 4 3 19 20 16 18 16 13 12 8 7 5 5 16 22 34 25 10 19 20 21 14 8 20 37 47 56 49 33
Wind_Direction_850mb
277 274 270 269 269 273 279 288 296 302 307 311 312 313 313 314 312 310 309 284 249 251 252 216 201 230 269 86 76 96 60 235 245 186 268 335 16 330 329 262 311 282 283 298 306
269 272 275 276 277 277 276 280 286 293 299 305 308 309 310 312 311 306 295 261 226 201 172 167 174 153 97 100 148 101 121 221 223 213 251 312 318 323 325 317 305 313 325 319 307
267 269 268 273 275 277 280 283 285 289 295 299 302 305 310 316 318 251 172 139 143 153 154 161 168 227 222 200 202 158 196 211 249 240 254 257 282 290 299 304 308 320 318 318 317
265 267 269 272 275 278 279 281 284 288 292 296 298 300 304 309 300 205 196 212 216 202 191 191 210 177 190 212 206 184 245 231 258 243 257 248 272 269 258 280 314 317 328 8 24
265 266 269 270 271 274 277 280 282 285 287 290 292 294 297 279 260 263 257 255 245 236 223 219 211 196 190 215 194 211 269 270 272 273 272 272 251 258 278 298 330 23 50 15 356
264 267 268 269 271 271 272 277 280 283 285 287 288 287 279 259 265 258 252 250 247 240 228 224 236 216 214 228 180 277 276 280 285 276 266 230 256 187 299 121 53 354 21 18 2
260 264 267 267 269 271 272 271 275 279 283 286 286 283 266 260 266 256 249 242 238 235 229 229 214 195 174 270 283 311 324 325 272 285 213 176 82 230 260 320 19 40 44 43 43
265 261 263 267 267 269 271 273 273 276 278 281 283 282 260 264 254 249 245 245 242 234 228 223 216 224 211 194 16 0 32 337 272 146 156 142 259 276 322 337 85 106 94 81 74
264 265 264 263 265 267 269 270 272 274 274 274 277 263 265 258 249 242 237 237 226 216 212 206 195 197 150 107 7 1 238 213 311 60 119 112 276 284 356 348 119 109 95 86 80
264 265 267 266 264 264 265 270 274 273 268 268 251 269 241 241 235 229 217 207 194 188 173 183 177 105 62 114 224 202 216 242 236 37 60 336 268 289 349 253 128 104 95 87 76
261 265 266 267 267 265 268 275 276 261 233 217 206 210 276 225 220 211 201 182 173 173 165 177 131 209 198 202 193 168 186 214 247 252 147 232 247 19 15 87 98 99 98 93 84
258 259 262 264 261 260 260 245 245 285 295 252 245 245 243 234 226 208 192 179 177 188 123 73 225 225 183 185 200 236 231 251 281 269 165 253 311 58 39 58 89 97 95 96 95
256 253 254 255 254 253 253 247 251 281 265 264 239 238 236 232 232 212 195 199 175 160 195 187 212 176 176 182 187 207 203 190 224 339 320 305 289 133 65 73 90 101 109 102 94
250 249 247 243 248 248 246 247 241 264 285 252 223 219 199 195 227 217 203 197 189 198 179 238 235 182 184 216 177 211 203 191 185 129 231 109 261 176 119 90 85 107 113 111 106
250 246 244 236 236 225 242 231 205 180 273 190 161 163 156 177 146 180 192 193 172 181 141 231 184 179 203 212 173 220 145 168 157 135 61 256 121 232 134 144 140 128 121 111 105
247 244 244 234 224 225 218 194 163 149 233 211 137 158 126 176 156 123 161 167 172 152 230 230 192 182 209 89 173 130 91 56 57 89 260 230 174 209 188 179 156 157 140 128 117
251 243 239 243 222 213 196 165 187 208 207 198 185 169 164 166 172 158 163 173 173 139 219 195 216 206 167 99 73 94 112 118 8 64 227 135 138 238 288 184 165 161 154 143 130
242 243 241 242 227 212 188 183 207 207 209 111 115 107 181 157 201 174 146 190 237 148 124 174 244 172 187 182 174 185 176 165 204 196 232 156 230 246 119 134 150 158 156 155 149
240 238 239 231 227 211 170 209 205 178 198 146 119 164 216 203 157 141 195 211 200 183 194 175 269 225 161 148 137 183 203 167 104 42 64 229 347 193 117 127 151 163 167 169 168
218 219 217 222 221 204 206 208 215 223 142 173 195 171 184 193 160 176 182 196 216 186 193 213 183 172 135 115 58 164 165 101 359 168 250 268 256 221 186 180 183 179 185 179 180
193 160 195 214 204 195 207 237 182 207 193 205 178 150 187 186 182 176 192 114 110 258 175 168 126 233 127 198 184 157 185 61 128 151 177 241 253 216 190 183 186 191 191 186 186
188 146 217 169 191 152 155 184 193 176 173 148 105 103 178 168 178 188 183 160 149 143 160 351 88 190 224 133 275 283 206 163 161 215 228 169 252 324 183 179 185 191 191 192 195
186 202 192 185 198 223 175 167 184 162 191 137 139 164 178 188 169 224 202 68 87 65 131 105 176 128 338 318 14 209 205 122 93 63 199 168 261 34 126 166 183 187 193 194 193
163 177 183 208 225 194 195 194 175 188 158 153 155 148 159 200 177 179 171 104 95 126 99 71 171 184 195 150 108 160 220 186 145 162 168 232 177 195 190 174 179 192 192 191 190
138 168 227 185 218 228 187 184 203 184 205 197 205 200 193 188 207 203 182 125 41 140 145 133 223 183 190 125 68 193 223 197 194 201 196 231 214 191 199 198 190 194 190 185 181
215 212 333 326 309 207 204 206 196 194 167 196 218 201 209 204 196 188 144 178 195 107 139 150 189 158 239 348 181 241 244 213 222 209 256 230 259 170 203 205 200 200 193 187 185
208 199 149 243 254 229 230 197 205 133 193 186 186 169 207 221 151 94 145 172 167 160 161 168 150 134 223 36 82 281 233 211 218 202 203 214 233 158 184 199 200 194 192 187 189